User: anonymous   Login
Location: Unspecified
(51.4172°N, 0.0000°E)
Time: 01:09:02
(UTC+00:00)
Language:

DPAF - Orbit

View from above orbital plane
View from above orbital plane
View from above satellite
View from above satellite

Ground track
Ground track

The orbit is defined by the following mean orbital elements,

1 25161U          26088.24000786 +.00000000 +00000-0 +23098-3 0 00004
2 25161 107.9914 270.7458 0058600 192.6151 262.6842 14.28227863    08
Epoch (UTC): 29 March 2026 05:45:36
Eccentricity: 0.0058600
inclination: 107.9914°
perigee height: 756 km
apogee height: 840 km
right ascension of ascending node: 270.7458°
argument of perigee: 192.6151°
revolutions per day: 14.28227863
mean anomaly at epoch: 262.6842°

The dashed part of the orbit path shows where the satellite is in the earth's shadow,  

DLR